This demonstration page uses our WeatherBlox Daily Observations layout. Learn more.

Left ArrowRight Arrow

30.00354, -91.81873

Hourly Observations for January 18, 2023

Temp ( °F °C ) Dew Point ( °F °C ) Humidity (%) Winds ( mph kmh ) Pressure ( in mb ) Visibility ( mi km ) Precip ( " mm )
12:39 am 00:39 Cloudy with Mist and Fog 68 20 66 18.9 93 93 S 12 19 29.84 1010 6 10 0.00 0.00
12:53 am 00:53 Cloudy with Mist and Fog 68 20 66 18.9 93 93 S 15 24 29.83 1010 5 8 0.00 0.00
1:53 am 01:53 Cloudy with Mist and Fog 67 19.4 65 18.3 93 93 S 12 19 29.83 1010 4 6 0.00 0.00
2:53 am 02:53 Mostly Cloudy 66 18.9 64 17.8 93 93 S 9 15 29.82 1010 7 11 0.00 0.00
3:08 am 03:08 Partly Cloudy 66 18.9 64 17.8 93 93 S 8 13 29.83 1010 8 13 0.00 0.00
3:53 am 03:53 Clear 65 18.3 63 17.2 93 93 SSE 7 11 29.84 1010 8 13 0.00 0.00
4:53 am 04:53 Clear with Mist and Fog 63 17.2 61 16.1 93 93 SE 7 11 29.84 1010 6 10 0.00 0.00
5:43 am 05:43 Cloudy with Mist and Fog 64 17.8 62 16.7 93 93 SE 8 13 29.84 1010 1 1 0.00 0.00
5:50 am 05:50 Cloudy with Fog 64 18 63 17 94 94 SE 8 13 29.84 1010 1 1 0.00 0.00
5:53 am 05:53 Cloudy with Fog 64 17.8 62 16.7 93 93 SE 8 13 29.84 1010 1 1 0.00 0.00
6:00 am 06:00 Cloudy with Fog 64 17.8 63 17.2 96 96 SE 8 13 29.84 1010 0 0 0.00 0.00
6:26 am 06:26 Cloudy with Fog 65 18.3 63 17.2 93 93 SE 14 22 29.84 1010 1 1 0.00 0.00
6:53 am 06:53 Cloudy with Mist and Fog 65 18.3 64 17.8 97 97 SE 10 17 29.84 1011 1 1 0.00 0.00
7:08 am 07:08 Cloudy with Mist and Fog 66 18.9 64 17.8 93 93 SSE 9 15 29.86 1011 1 2 0.00 0.00
7:23 am 07:23 Cloudy with Mist and Fog 65 18.3 64 17.8 97 97 SE 9 15 29.86 1011 3 4 0.00 0.00
7:30 am 07:30 Cloudy with Mist and Fog 65 18.3 64 17.8 97 97 SE 10 17 29.86 1011 4 6 0.00 0.00
7:53 am 07:53 Cloudy with Mist and Fog 66 18.9 64 17.8 93 93 SE 9 15 29.86 1011 4 6 0.00 0.00
8:06 am 08:06 Cloudy with Mist and Fog 66 18.9 64 17.8 93 93 SE 9 15 29.87 1011 5 8 0.00 0.00
8:26 am 08:26 Cloudy with Mist and Fog 66 18.9 64 17.8 93 93 SE 10 17 29.87 1011 6 10 0.00 0.00
8:42 am 08:42 Cloudy 67 19.4 65 18.3 93 93 SSE 7 11 29.88 1012 8 13 0.00 0.00
8:53 am 08:53 Cloudy 68 20 66 18.9 93 93 SSE 9 15 29.89 1012 9 14 0.00 0.00
9:45 am 09:45 Cloudy 69 20.6 67 19.4 93 93 S 10 17 29.91 1013 10 16 0.00 0.00
9:53 am 09:53 Cloudy 70 21.1 67 19.4 90 90 S 9 15 29.91 1013 10 16 0.00 0.00
10:53 am 10:53 Cloudy 73 22.8 67 19.4 81 81 S 17 28 29.90 1013 10 16 0.00 0.00
11:07 am 11:07 Cloudy 73 22.8 67 19.4 81 81 SSE 20 31 29.90 1012 10 16 0.00 0.00
11:20 am 11:20 Cloudy 74 23.3 67 19.4 79 79 SSE 20 31 29.89 1012 10 16 0.00 0.00
11:53 am 11:53 Mostly Cloudy 75 23.9 66 18.9 74 74 S 20 31 29.86 1011 10 16 0.00 0.00
12:53 pm 12:53 Mostly Cloudy 77 25 67 19.4 71 71 S 26 43 29.83 1010 10 16 0.00 0.00
1:06 pm 13:06 Partly Cloudy 77 25 67 19.4 71 71 S 23 37 29.83 1010 10 16 0.00 0.00
1:23 pm 13:23 Mostly Cloudy 77 25 67 19.4 71 71 S 21 33 29.82 1010 10 16 0.00 0.00
1:53 pm 13:53 Cloudy 77 25 67 19.4 71 71 S 22 35 29.81 1010 10 16 0.00 0.00
2:22 pm 14:22 Cloudy 77 25 67 19.4 71 71 S 25 41 29.80 1009 10 16 0.00 0.00
2:53 pm 14:53 Cloudy 76 24.4 67 19.4 74 74 S 20 31 29.80 1009 10 16 0.00 0.00
3:53 pm 15:53 Cloudy 74 23.3 66 18.9 76 76 S 20 31 29.78 1009 10 16 0.00 0.00
4:08 pm 16:08 Cloudy 73 22.8 66 18.9 79 79 S 24 39 29.79 1009 10 16 0.00 0.00
4:53 pm 16:53 Cloudy 72 22.2 66 18.9 82 82 S 22 35 29.78 1009 10 16 0.00 0.00
5:53 pm 17:53 Cloudy 71 21.7 66 18.9 84 84 S 21 33 29.77 1008 10 16 0.00 0.00
6:24 pm 18:24 Cloudy 70 21.1 66 18.9 87 87 S 22 35 29.78 1008 10 16 0.00 0.00
6:46 pm 18:46 Cloudy 70 21.1 66 18.9 87 87 S 20 31 29.79 1009 10 16 0.00 0.00
6:53 pm 18:53 Cloudy 70 21.1 66 18.9 87 87 S 18 30 29.79 1009 10 16 0.00 0.00
7:29 pm 19:29 Mostly Cloudy 69 20.6 65 18.3 87 87 S 20 31 29.79 1009 10 16 0.00 0.00
7:42 pm 19:42 Mostly Cloudy 69 20.6 65 18.3 87 87 S 18 30 29.80 1009 9 14 0.00 0.00
7:53 pm 19:53 Mostly Cloudy 69 20.6 65 18.3 87 87 S 17 28 29.81 1009 9 14 0.00 0.00
8:08 pm 20:08 Cloudy 69 20.6 65 18.3 87 87 S 20 31 29.81 1009 10 16 0.00 0.00
8:46 pm 20:46 Cloudy 70 21.1 66 18.9 87 87 S 20 31 29.82 1010 10 16 0.00 0.00
8:53 pm 20:53 Cloudy 70 21.1 66 18.9 87 87 S 18 30 29.80 1009 10 16 0.00 0.00
9:13 pm 21:13 Cloudy 70 21.1 66 18.9 87 87 S 15 24 29.84 1010 10 16 0.00 0.00
9:22 pm 21:22 Cloudy with Nearby Thunderstorms 70 21.1 66 18.9 87 87 S 22 35 29.82 1010 10 16 0.00 0.00
9:53 pm 21:53 Cloudy with Nearby Thunderstorms 70 21.1 66 18.9 87 87 S 15 24 29.83 1010 7 11 0.01 0.25
10:08 pm 22:08 Cloudy with Thunderstorms 69 20.6 65 18.3 87 87 WNW 12 19 29.85 1011 6 10 0.01 0.25
10:16 pm 22:16 Cloudy with Strong Thunderstorms 68 20 64 17.8 87 87 WNW 8 13 29.85 1011 5 8 0.04 1.02
10:23 pm 22:23 Cloudy with Strong Thunderstorms 69 20.6 65 18.3 87 87 W 16 26 29.86 1011 2 3 0.25 6.35
10:27 pm 22:27 Cloudy with Strong Thunderstorms 69 20.6 66 18.9 90 90 W 15 24 29.87 1011 1 1 0.60 15.24
10:41 pm 22:41 Cloudy with Strong Thunderstorms 69 20.6 67 19.4 93 93 SSW 8 13 29.87 1011 2 3 0.95 24.13
10:50 pm 22:50 Cloudy with Strong Thunderstorms 69 20.6 66 18.9 90 90 SW 9 15 29.87 1012 4 6 0.98 24.89
10:57 pm 22:57 Cloudy with Nearby Thunderstorms 69 20.6 66 18.9 90 90 W 13 20 29.88 1012 3 5 0.02 0.51
11:16 pm 23:16 Cloudy with Nearby Thunderstorms 67 19.4 61 16.1 81 81 WNW 8 13 29.89 1012 10 16 0.02 0.51
11:24 pm 23:24 Cloudy with Light Rain 67 19.4 60 15.6 79 79 SW 7 11 29.89 1012 10 16 0.02 0.51
11:53 pm 23:53 Cloudy 66 18.9 60 15.6 81 81 W 5 7 29.89 1012 10 16 0.02 0.51

Powered by AerisWeather